McGuire AFB, NJ

12:29 PM EDT on June 29, 2017 (GMT -0400)
McGuire Air Force Base

Weather History for KWRI - June, 2013

Change the Weather History Date:

Friday, June 14, 2013

  Actual Average Record
Temperature  
Mean Temperature 62 °F -  
Max Temperature 72 °F 77 °F 91 °F (2003)
Min Temperature 53 °F 58 °F 53 °F (2013)
Degree Days  
Heating Degree Days 2    
Growing Degree Days 12 (Base 50)    
Moisture  
Dew Point 55 °F    
Average Humidity 85    
Maximum Humidity 100    
Minimum Humidity 56    
Precipitation  
Precipitation 0.59 in - - ()
Sea Level Pressure  
Sea Level Pressure 29.71 in    
Wind  
Wind Speed 12 mph (NNW)    
Max Wind Speed 22 mph    
Max Gust Speed 26 mph    
Visibility 8 miles    
Events Rain , Thunderstorm    
Averages and records for this station are not official NWS values.
T = Trace of Precipitation, MM = Missing Value Source: NWS Daily Summary

Daily Weather History Graph

Daily Weather History Graph

Search for Another Location

Airport or City:

Trip Planner

Search our weather history database for the weather conditions in past years. The results will help you decide how hot, cold, wet, or windy it might be!

Date:

Astronomy

Jun. 14, 2013 Rise Set
Actual Time 5:28 AM EDT 8:28 PM EDT
Civil Twilight 4:56 AM EDT 9:01 PM EDT
Nautical Twilight 4:14 AM EDT 9:43 PM EDT
Astronomical Twilight 3:25 AM EDT 10:31 PM EDT
Moon 11:01 AM EDT (6/14) No Moon Set
Length of Visible Light 16h 05m
Length of Day
14h 59m
Waxing Crescent, 30% of the Moon is Illuminated
Jun 14
Waxing Crescent
Jun 16
First Quarter
Jun 23
Full
Jun 30
Last Quarter
Jul 8
New

Hourly Weather History & Observations

Time (EDT) Temp. Dew Point Humidity Pressure Visibility Wind Dir Wind Speed Gust Speed Precip Events Conditions
12:06 AM 60.8 °F 59.0 °F 94% 29.47 in 10.0 mi North 15.0 mph - N/A   Overcast
12:09 AM 60.8 °F 59.0 °F 94% 29.48 in 10.0 mi North 16.1 mph 23.0 mph N/A Rain Light Rain
12:30 AM 59.0 °F 57.2 °F 94% 29.49 in 9.0 mi North 13.8 mph 23.0 mph N/A Rain Light Rain
12:44 AM 59.0 °F 57.2 °F 94% 29.50 in 10.0 mi North 15.0 mph 23.0 mph N/A Rain Light Rain
12:52 AM 59.0 °F 57.2 °F 94% 29.50 in 9.0 mi North 12.7 mph 20.7 mph N/A Rain Light Rain
12:56 AM 59.0 °F 57.2 °F 94% 29.50 in 8.0 mi North 13.8 mph - N/A Rain Light Rain
12:57 AM 59.0 °F 57.2 °F 94% 29.50 in 7.0 mi North 13.8 mph 19.6 mph N/A Rain Light Rain
12:58 AM 59.0 °F 57.2 °F 94% 29.51 in 7.0 mi North 13.8 mph 19.6 mph 0.01 in Rain Light Rain
1:00 AM 59.0 °F 57.2 °F 94% 29.50 in 7.0 mi North 12.7 mph 19.6 mph N/A Rain Light Rain
1:01 AM 59.0 °F 57.2 °F 94% 29.51 in 7.0 mi North 13.8 mph 19.6 mph N/A Rain Light Rain
1:05 AM 59.0 °F 57.2 °F 94% 29.51 in 7.0 mi North 12.7 mph 19.6 mph N/A Rain Light Rain
1:20 AM 57.2 °F 55.4 °F 94% 29.52 in 9.0 mi North 13.8 mph 21.9 mph N/A Rain Rain
1:29 AM 57.2 °F 55.4 °F 94% 29.53 in 9.0 mi North 13.8 mph 21.9 mph N/A Rain Rain
1:38 AM 57.2 °F 55.4 °F 94% 29.53 in 10.0 mi North 11.5 mph - N/A Rain Light Rain
1:56 AM 57.2 °F 55.4 °F 94% 29.55 in 10.0 mi North 15.0 mph - N/A   Overcast
1:57 AM 57.2 °F 55.4 °F 94% 29.55 in 10.0 mi North 13.8 mph - N/A   Overcast
1:58 AM 57.2 °F 55.4 °F 94% 29.56 in 10.0 mi North 13.8 mph - 0.01 in   Overcast
2:20 AM 57.2 °F 53.6 °F 88% 29.56 in 10.0 mi North 21.9 mph 26.5 mph N/A   Overcast
2:58 AM 55.9 °F 52.9 °F 89% 29.57 in 10.0 mi North 16.1 mph 21.9 mph N/A   Overcast
3:09 AM 55.4 °F 53.6 °F 94% 29.57 in 10.0 mi North 15.0 mph - N/A   Overcast
3:11 AM 55.4 °F 53.6 °F 94% 29.57 in 10.0 mi North 15.0 mph 19.6 mph N/A   Overcast
3:13 AM 55.4 °F 53.6 °F 94% 29.57 in 10.0 mi North 16.1 mph 23.0 mph N/A   Overcast
3:46 AM 55.4 °F 53.6 °F 94% 29.58 in 10.0 mi North 15.0 mph 21.9 mph N/A   Overcast
3:58 AM 56.1 °F 53.2 °F 90% 29.61 in 10.0 mi NNW 13.8 mph 20.7 mph N/A   Overcast
4:00 AM 55.4 °F 53.6 °F 94% 29.60 in 10.0 mi NNW 16.1 mph 20.7 mph N/A   Overcast
4:06 AM 55.4 °F 53.6 °F 94% 29.61 in 10.0 mi North 16.1 mph - N/A Rain Light Rain
4:22 AM 55.4 °F 53.6 °F 94% 29.60 in 9.0 mi North 21.9 mph 24.2 mph N/A Rain Light Rain
4:34 AM 55.4 °F 53.6 °F 94% 29.61 in 10.0 mi NNW 11.5 mph 21.9 mph N/A Rain Light Rain
4:48 AM 55.4 °F 53.6 °F 94% 29.62 in 9.0 mi NNW 13.8 mph - N/A Rain Light Rain
4:51 AM 55.4 °F 53.6 °F 94% 29.62 in 9.0 mi NNW 13.8 mph - N/A Rain Light Rain
4:55 AM 55.4 °F 53.6 °F 94% 29.62 in 9.0 mi NNW 12.7 mph - N/A Rain Light Rain
4:56 AM 55.4 °F 53.6 °F 94% 29.62 in 9.0 mi NNW 11.5 mph - N/A Rain Light Rain
4:58 AM 55.4 °F 53.6 °F 94% 29.63 in 9.0 mi NNW 15.0 mph - 0.00 in Rain Light Rain
4:59 AM 55.4 °F 53.6 °F 94% 29.62 in 9.0 mi NNW 13.8 mph - N/A Rain Light Rain
5:07 AM 55.4 °F 53.6 °F 94% 29.62 in 9.0 mi NNW 11.5 mph - N/A Rain Light Rain
5:08 AM 55.4 °F 53.6 °F 94% 29.63 in 9.0 mi NNW 11.5 mph - N/A Rain Light Rain
5:09 AM 55.4 °F 53.6 °F 94% 29.63 in 9.0 mi NNW 11.5 mph 18.4 mph N/A Rain Light Rain
5:43 AM 55.4 °F 53.6 °F 94% 29.64 in 7.0 mi NNW 13.8 mph 24.2 mph N/A Rain Light Rain
5:49 AM 55.4 °F 53.6 °F 94% 29.64 in 6.0 mi North 17.3 mph 24.2 mph N/A Rain Light Rain
5:58 AM 54.5 °F 52.7 °F 94% 29.65 in 10.0 mi NNW 13.8 mph - 0.01 in Rain Light Rain
6:02 AM 55.4 °F 51.8 °F 88% 29.65 in 10.0 mi North 12.7 mph - N/A Rain Light Rain
6:05 AM 53.6 °F 53.6 °F 100% 29.65 in 8.0 mi North 13.8 mph - N/A Rain Light Rain
6:15 AM 53.6 °F 51.8 °F 94% 29.65 in 8.0 mi North 15.0 mph - N/A Rain Light Rain
6:18 AM 53.6 °F 51.8 °F 94% 29.65 in 9.0 mi North 13.8 mph - N/A Rain Light Rain
6:19 AM 53.6 °F 51.8 °F 94% 29.65 in 10.0 mi North 13.8 mph - N/A Rain Light Rain
6:20 AM 53.6 °F 51.8 °F 94% 29.65 in 10.0 mi North 13.8 mph - N/A Rain Light Rain
6:25 AM 53.6 °F 51.8 °F 94% 29.66 in 10.0 mi North 12.7 mph - N/A Rain Light Rain
6:26 AM 53.6 °F 51.8 °F 94% 29.66 in 10.0 mi North 12.7 mph - N/A Rain Light Rain
6:30 AM 53.6 °F 51.8 °F 94% 29.66 in 10.0 mi North 11.5 mph - N/A Rain Light Rain
6:45 AM 53.6 °F 51.8 °F 94% 29.67 in 10.0 mi North 11.5 mph - N/A Rain Light Rain
6:46 AM 53.6 °F 51.8 °F 94% 29.67 in 10.0 mi North 11.5 mph - N/A Rain Light Rain
6:48 AM 53.6 °F 51.8 °F 94% 29.67 in 10.0 mi North 13.8 mph - N/A   Overcast
6:54 AM 55.4 °F 51.8 °F 88% 29.67 in 10.0 mi North 11.5 mph - N/A   Overcast
6:58 AM 54.5 °F 52.0 °F 91% 29.68 in 10.0 mi NNW 12.7 mph - 0.01 in   Overcast
7:02 AM 55.4 °F 51.8 °F 88% 29.67 in 10.0 mi North 11.5 mph - N/A   Overcast
7:06 AM 55.4 °F 51.8 °F 88% 29.68 in 10.0 mi North 13.8 mph - N/A   Overcast
7:10 AM 55.4 °F 51.8 °F 88% 29.68 in 10.0 mi NNW 16.1 mph 20.7 mph N/A   Overcast
7:16 AM 55.4 °F 51.8 °F 88% 29.68 in 10.0 mi NNW 12.7 mph - N/A   Overcast
7:21 AM 55.4 °F 51.8 °F 88% 29.68 in 10.0 mi NNW 11.5 mph - N/A Rain Light Rain
7:35 AM 55.4 °F 51.8 °F 88% 29.69 in 10.0 mi NNW 12.7 mph - N/A Rain Light Rain
7:36 AM 55.4 °F 51.8 °F 88% 29.69 in 10.0 mi NNW 11.5 mph - N/A Rain Light Rain
7:48 AM 55.4 °F 51.8 °F 88% 29.69 in 10.0 mi NNW 10.4 mph - N/A   Overcast
7:53 AM 55.4 °F 51.8 °F 88% 29.70 in 10.0 mi North 12.7 mph - N/A   Overcast
7:54 AM 55.4 °F 51.8 °F 88% 29.70 in 10.0 mi North 12.7 mph - N/A   Overcast
7:57 AM 55.4 °F 51.8 °F 88% 29.70 in 10.0 mi NNW 11.5 mph - N/A   Overcast
7:58 AM 55.4 °F 51.8 °F 88% 29.71 in 10.0 mi NNW 12.7 mph - 0.00 in   Overcast
8:04 AM 55.4 °F 51.8 °F 88% 29.70 in 10.0 mi NNW 11.5 mph - N/A   Overcast
8:17 AM 55.4 °F 51.8 °F 88% 29.71 in 10.0 mi NNW 11.5 mph - N/A   Overcast
8:42 AM 55.4 °F 51.8 °F 88% 29.73 in 10.0 mi NNW 10.4 mph - N/A   Overcast
8:58 AM 56.3 °F 51.6 °F 84% 29.75 in 10.0 mi NNW 11.5 mph - N/A   Mostly Cloudy
9:58 AM 58.1 °F 51.8 °F 80% 29.78 in 10.0 mi NNW 9.2 mph - N/A   Overcast
10:31 AM 59.0 °F 51.8 °F 77% 29.79 in 10.0 mi NW 10.4 mph - N/A Rain Light Rain
10:58 AM 59.7 °F 52.5 °F 77% 29.81 in 10.0 mi NW 11.5 mph 17.3 mph 0.00 in Rain Light Rain
11:48 AM 60.8 °F 53.6 °F 77% 29.81 in 10.0 mi NW 10.4 mph - N/A   Mostly Cloudy
11:58 AM 60.1 °F 52.5 °F 76% 29.82 in 10.0 mi NW 12.7 mph - 0.00 in   Scattered Clouds
11:59 AM 60.8 °F 51.8 °F 72% 29.81 in 10.0 mi NW 11.5 mph - N/A Rain Light Rain
12:08 PM 60.8 °F 51.8 °F 72% 29.81 in 10.0 mi NNW 10.4 mph - N/A   Mostly Cloudy
12:58 PM 63.9 °F 51.8 °F 65% 29.82 in 10.0 mi NW 10.4 mph - 0.00 in   Mostly Cloudy
1:58 PM 66.4 °F 52.0 °F 60% 29.82 in 10.0 mi NW 5.8 mph - N/A   Mostly Cloudy
2:09 PM 68.0 °F 53.6 °F 60% 29.81 in 10.0 mi Variable 5.8 mph - N/A Rain Light Rain
2:19 PM 68.0 °F 53.6 °F 60% 29.81 in 10.0 mi Variable 6.9 mph - N/A   Mostly Cloudy
2:57 PM 69.8 °F 53.6 °F 56% 29.80 in 10.0 mi Variable 2.3 mph - N/A Rain Light Rain
2:58 PM 69.8 °F 53.6 °F 56% 29.81 in 10.0 mi WNW 2.3 mph - 0.00 in Rain Light Rain
3:08 PM 69.8 °F 53.6 °F 56% 29.80 in 10.0 mi Variable 4.6 mph - N/A   Clear
3:16 PM 69.8 °F 55.4 °F 60% 29.80 in 10.0 mi Variable 4.6 mph - N/A Rain Light Rain
3:25 PM 71.6 °F 55.4 °F 57% 29.79 in 9.0 mi SSW 5.8 mph - N/A   Partly Cloudy
3:31 PM 71.6 °F 55.4 °F 57% 29.79 in 10.0 mi SW 5.8 mph - N/A Rain Light Rain
3:41 PM 71.6 °F 55.4 °F 57% 29.79 in 10.0 mi Variable 5.8 mph - N/A   Partly Cloudy
3:43 PM 71.6 °F 55.4 °F 57% 29.79 in 10.0 mi WSW 6.9 mph - N/A Rain Light Rain
3:45 PM 71.6 °F 55.4 °F 57% 29.79 in 10.0 mi Variable 4.6 mph - N/A   Partly Cloudy
3:58 PM 72.0 °F 55.9 °F 57% 29.79 in 10.0 mi SSW 8.1 mph - 0.00 in   Mostly Cloudy
4:33 PM 69.8 °F 55.4 °F 60% 29.78 in 10.0 mi South 4.6 mph - N/A   Mostly Cloudy
4:39 PM 69.8 °F 57.2 °F 64% 29.78 in 3.0 mi SE 4.6 mph - N/A Rain Light Rain
4:40 PM 69.8 °F 57.2 °F 64% 29.78 in 2.5 mi ESE 4.6 mph - N/A Rain Light Rain
4:43 PM 69.8 °F 57.2 °F 64% 29.78 in 1.8 mi ESE 4.6 mph - N/A Rain Light Rain
4:46 PM 68.0 °F 57.2 °F 68% 29.79 in 2.0 mi SSE 5.8 mph - N/A Rain Light Rain
4:49 PM 68.0 °F 59.0 °F 73% 29.78 in 3.0 mi South 8.1 mph - N/A Rain Light Rain
4:58 PM 66.9 °F 60.4 °F 80% 29.79 in 10.0 mi South 5.8 mph - 0.00 in Rain , Thunderstorm Light Rain
5:05 PM 64.4 °F 60.8 °F 88% 29.81 in 2.5 mi NE 16.1 mph 21.9 mph N/A Rain , Thunderstorm Light Rain
5:07 PM 64.4 °F 60.8 °F 88% 29.82 in 1.8 mi NNE 8.1 mph 21.9 mph N/A Rain , Thunderstorm Rain
5:08 PM 64.4 °F 60.8 °F 88% 29.82 in 1.5 mi NNE 6.9 mph 21.9 mph N/A Rain , Thunderstorm Heavy Rain
5:11 PM 64.4 °F 60.8 °F 88% 29.83 in 1.2 mi Variable 1.2 mph 21.9 mph N/A Rain Heavy Rain
5:13 PM 64.4 °F 59.0 °F 83% 29.82 in 1.0 mi Variable 1.2 mph - N/A Rain Heavy Rain
5:14 PM 64.4 °F 59.0 °F 83% 29.82 in 1.0 mi Variable 2.3 mph - N/A Rain Heavy Rain
5:16 PM 62.6 °F 59.0 °F 88% 29.82 in 1.0 mi WSW 5.8 mph - N/A Rain Heavy Rain
5:17 PM 62.6 °F 59.0 °F 88% 29.83 in 1.2 mi West 6.9 mph - N/A Rain Heavy Rain
5:19 PM 62.6 °F 59.0 °F 88% 29.83 in 1.5 mi West 10.4 mph - N/A Rain , Thunderstorm Heavy Thunderstorms and Rain
5:21 PM 62.6 °F 57.2 °F 82% 29.83 in 1.8 mi West 9.2 mph - N/A Rain , Thunderstorm Heavy Thunderstorms and Rain
5:22 PM 62.6 °F 59.0 °F 88% 29.83 in 2.0 mi West 8.1 mph - N/A Rain , Thunderstorm Heavy Thunderstorms and Rain
5:23 PM 62.6 °F 59.0 °F 88% 29.83 in 3.0 mi West 8.1 mph - N/A Rain , Thunderstorm Heavy Thunderstorms and Rain
5:34 PM 62.6 °F 59.0 °F 88% 29.81 in 10.0 mi SSW 6.9 mph - N/A Rain Light Rain
5:40 PM 62.6 °F 59.0 °F 88% 29.81 in 10.0 mi SSW 5.8 mph - N/A   Mostly Cloudy
5:58 PM 64.8 °F 59.5 °F 83% 29.82 in 10.0 mi SSE 3.5 mph - 0.46 in   Mostly Cloudy
5:59 PM 64.4 °F 60.8 °F 88% 29.81 in 10.0 mi SSE 4.6 mph - N/A Rain Light Rain
6:09 PM 64.4 °F 62.6 °F 94% 29.81 in 10.0 mi SSE 5.8 mph - N/A   Mostly Cloudy
6:10 PM 66.2 °F 62.6 °F 88% 29.81 in 10.0 mi SSE 4.6 mph - N/A   Light Drizzle
6:21 PM 64.4 °F 62.6 °F 94% 29.81 in 10.0 mi SE 3.5 mph - N/A   Scattered Clouds
6:29 PM 64.4 °F 62.6 °F 94% 29.83 in 9.0 mi ENE 4.6 mph - N/A   Mostly Cloudy
6:34 PM 64.4 °F 62.6 °F 94% 29.84 in 5.0 mi NNE 3.5 mph - N/A Rain Light Rain
6:58 PM 64.0 °F 62.1 °F 93% 29.84 in 6.0 mi Calm Calm - 0.05 in Rain Rain
7:12 PM 64.4 °F 60.8 °F 88% 29.84 in 10.0 mi NNW 4.6 mph - N/A   Overcast
7:19 PM 64.4 °F 60.8 °F 88% 29.84 in 10.0 mi Variable 5.8 mph - N/A Rain Light Rain
7:58 PM 63.3 °F 59.0 °F 86% 29.86 in 9.0 mi Variable 3.5 mph - 0.02 in Rain Rain
8:33 PM 62.6 °F 57.2 °F 82% 29.84 in 10.0 mi WNW 3.5 mph - N/A   Overcast
8:58 PM 63.1 °F 59.2 °F 87% 29.86 in 10.0 mi NNW 2.3 mph - 0.02 in   Overcast
9:58 PM 61.0 °F 58.3 °F 91% 29.88 in 10.0 mi West 3.5 mph - N/A   Clear
10:58 PM 60.8 °F 58.8 °F 93% 29.90 in 10.0 mi West 5.8 mph - N/A   Clear
11:58 PM 60.3 °F 57.9 °F 92% 29.91 in 10.0 mi West 3.5 mph - N/A   Clear